Weather History for Fargo, ND

Change the Weather History Date:

Friday, March 30, 2012

  Actual Average Record
Temperature  
Mean Temperature 45 °F 35 °F  
Max Temperature 60 °F 45 °F 78 °F (1967)
Min Temperature 30 °F 26 °F -14 °F (1969)
Degree Days  
Heating Degree Days 20 30  
Month to date heating degree days 720 1123  
Since 1 July heating degree days 6147 7801  
Cooling Degree Days 0 0  
Month to date cooling degree days 6 0  
Year to date cooling degree days 6 0  
Moisture  
Dew Point 35 °F    
Average Humidity 77    
Maximum Humidity 96    
Minimum Humidity 57    
Precipitation  
Precipitation 0.00 in 0.04 in 0.54 in (1916)
Month to date precipitation 0.78 1.25  
Year to date precipitation 2.31 2.56  
Snow  
Snow 0.00 in 0.10 in 5.80 in (2009)
Month to date snowfall 2.6 8.9  
Since 1 July snowfall 27.0 46.9  
Snow Depth 0.00 in    
Sea Level Pressure  
Sea Level Pressure 29.78 in    
Wind  
Wind Speed 6 mph (SE)    
Max Wind Speed 23 mph    
Max Gust Speed 30 mph    
Visibility 5 miles    
Events Fog    
T = Trace of Precipitation, MM = Missing Value Source: NWS Daily Summary

Daily Weather History Graph

Daily Weather History Graph

Search for Another Location

Airport:

Trip Planner

Search our weather history database for the weather conditions in past years. The results will help you decide how hot, cold, wet, or windy it might be!

Date:

Astronomy

Mar. 30, 2012 Rise Set
Actual Time 7:09 AM CDT 7:54 PM CDT
Civil Twilight 6:38 AM CDT 8:25 PM CDT
Nautical Twilight 6:02 AM CDT 9:01 PM CDT
Astronomical Twilight 5:24 AM CDT 9:40 PM CDT
Moon 11:58 AM CDT (3/30) 2:49 AM CDT (3/30)
Length of Visible Light 13h 46m
Length of Day
12h 45m
Waxing Crescent, 49% of the Moon is Illuminated
Mar 30
Waxing Crescent
Mar 30
First Quarter
Apr 6
Full
Apr 13
Last Quarter
Apr 21
New

Hourly Weather History & Observations

Time (CDT) Temp. Windchill Dew Point Humidity Pressure Visibility Wind Dir Wind Speed Gust Speed Precip Events Conditions
12:00 AM 35.6 °F - 32.0 °F 87% 29.77 in 0.2 mi Calm Calm - N/A Fog Fog
12:42 AM 33.8 °F - 30.2 °F 87% 29.78 in 0.2 mi Calm Calm - N/A Fog Fog
12:53 AM 33.1 °F 28.7 °F 30.9 °F 92% 29.82 in 0.2 mi WNW 4.6 mph - N/A Fog Fog
1:02 AM 33.8 °F - 30.2 °F 87% 29.78 in 0.2 mi Calm Calm - N/A Fog Fog
1:16 AM 33.8 °F 30.8 °F 30.2 °F 87% 29.77 in 0.2 mi North 3.5 mph - N/A Fog Fog
1:53 AM 30.9 °F 27.5 °F 28.9 °F 92% 29.81 in 0.2 mi NNW 3.5 mph - N/A Fog Light Freezing Fog
2:51 AM 30.2 °F - 28.4 °F 93% 29.77 in 0.5 mi Calm Calm - N/A Fog Light Freezing Fog
2:53 AM 30.9 °F - 28.9 °F 92% 29.80 in 0.5 mi Calm Calm - N/A Fog Light Freezing Fog
3:04 AM 30.2 °F 26.7 °F 28.4 °F 93% 29.77 in 0.2 mi NW 3.5 mph - N/A Fog Light Freezing Fog
3:17 AM 30.2 °F - 28.4 °F 93% 29.77 in 0.5 mi Calm Calm - N/A Fog Light Freezing Fog
3:33 AM 30.2 °F - 28.4 °F 93% 29.76 in 0.2 mi Calm Calm - N/A Fog Light Freezing Fog
3:53 AM 30.0 °F 25.2 °F 27.0 °F 88% 29.80 in 0.2 mi WSW 4.6 mph - N/A Fog Light Freezing Fog
4:53 AM 30.9 °F - 28.9 °F 92% 29.80 in 0.2 mi Calm Calm - N/A Fog Light Freezing Fog
5:02 AM 30.2 °F 26.7 °F 28.4 °F 93% 29.77 in 0.2 mi South 3.5 mph - N/A Fog Light Freezing Fog
5:22 AM 32.0 °F - 30.2 °F 93% 29.77 in 0.5 mi Calm Calm - N/A Fog Fog
5:38 AM 32.0 °F - 30.2 °F 93% 29.77 in 2.0 mi Calm Calm - N/A   Overcast
5:53 AM 32.0 °F - 30.0 °F 92% 29.80 in 6.0 mi Calm Calm - N/A   Overcast
6:08 AM 32.0 °F - 30.2 °F 93% 29.77 in 7.0 mi Calm Calm - N/A   Overcast
6:53 AM 33.1 °F 30.0 °F 30.9 °F 92% 29.81 in 7.0 mi SW 3.5 mph - N/A   Overcast
7:08 AM 33.8 °F 30.8 °F 30.2 °F 87% 29.78 in 7.0 mi West 3.5 mph - N/A   Overcast
7:53 AM 34.0 °F - 32.0 °F 92% 29.82 in 6.0 mi Calm Calm - N/A   Overcast
8:53 AM 37.0 °F 33.3 °F 34.0 °F 89% 29.83 in 7.0 mi WNW 4.6 mph - N/A   Overcast
9:53 AM 39.0 °F - 36.0 °F 89% 29.84 in 7.0 mi Calm Calm - N/A   Overcast
10:41 AM 42.8 °F - 37.4 °F 81% 29.81 in 8.0 mi Calm Calm - N/A   Overcast
10:53 AM 43.0 °F - 37.9 °F 82% 29.84 in 9.0 mi Calm Calm - N/A   Overcast
11:53 AM 45.0 °F - 39.0 °F 80% 29.84 in 9.0 mi Calm Calm - N/A   Overcast
12:32 PM 46.4 °F 45.2 °F 39.2 °F 76% 29.80 in 10.0 mi NE 3.5 mph - N/A   Overcast
12:53 PM 48.9 °F - 39.0 °F 69% 29.81 in 10.0 mi Variable 4.6 mph - N/A   Overcast
1:15 PM 48.2 °F - 39.2 °F 71% 29.78 in 10.0 mi SE 4.6 mph - N/A   Scattered Clouds
1:53 PM 50.0 °F - 39.9 °F 68% 29.79 in 10.0 mi NE 4.6 mph - N/A   Clear
2:53 PM 52.0 °F - 41.0 °F 66% 29.77 in 10.0 mi ESE 8.1 mph - N/A   Clear
3:53 PM 55.9 °F - 41.0 °F 57% 29.76 in 10.0 mi East 5.8 mph - N/A   Clear
4:53 PM 57.9 °F - 43.0 °F 58% 29.77 in 10.0 mi SE 4.6 mph - N/A   Clear
5:53 PM 59.0 °F - 44.1 °F 58% 29.76 in 10.0 mi SE 6.9 mph - N/A   Clear
6:53 PM 57.9 °F - 45.0 °F 62% 29.74 in 10.0 mi SE 10.4 mph - N/A   Clear
7:53 PM 55.9 °F - 46.0 °F 69% 29.73 in 9.0 mi SSE 9.2 mph - N/A   Clear
8:53 PM 54.0 °F - 41.0 °F 62% 29.74 in 10.0 mi SE 8.1 mph - N/A   Clear
9:53 PM 50.0 °F - 39.9 °F 68% 29.74 in 10.0 mi ESE 9.2 mph - N/A   Clear
10:53 PM 50.0 °F - 41.0 °F 71% 29.73 in 10.0 mi SE 15.0 mph - N/A   Clear
11:53 PM 50.0 °F - 42.1 °F 74% 29.72 in 9.0 mi SE 17.3 mph 23.0 mph N/A   Clear